Back to catalog

OPS 4682 DEB

AlivePO
NORAD 38455·DEBRIS·🇺🇸 United States

Launched Apr 3, 1965 from Vandenberg Space Force Base

Loading…

Next Passes (next 24 hours)

TLE

AgingSource: Space-Track

Epoch: Sep 9, 2026, 14:40 UTC

1 38455U 65027FL  26252.61175934  .00000798  00000-0  26996-2 0  9996
2 38455  90.2434   6.1664 0028598 175.6559 184.4815 12.97941254595466

Track OPS 4682 DEB in real time with AllMySat

Download on the App Store